Tracking 29528 objects as of 12-Sep-2024
HD Live streaming from Space Station
objects crossing your sky now

USA 12

Track USA 12 now!
USA 12 is classified as:


NORAD ID: 16117
Int'l Code: 1985-092C
Perigee: 36,124.1 km
Apogee: 36,190.9 km
Inclination: 14.6 °
Period: 1,454.7 minutes
Semi major axis: 42528 km
RCS: Unknown
Launch date: October 3, 1985
Source: United States (US)
Launch site: AIR FORCE EASTERN TEST RANGE (AFETR)
Your satellite tracking list
Your tracking list is empty




NASA's NSSDC Master Catalog

Two Line Element Set (TLE):
1 16117U 85092C   24254.59193530  .00000047  00000-0  00000-0 0  9993
2 16117  14.6183 350.9748 0007861 133.7042 319.5968  0.98988122 19344
Source of the keplerian elements: McCants